Location: Boiro
(42.6475°N, 8.8834°W)
Time: 00:23:48
(UTC+01:00)

Transit 2A - Pass Details

Date: 07 December 2021
Orbit: 591 x 967 km, 66.7° (Epoch: 18 January)

Event Time Altitude Azimuth Distance (km) Brightness Sun altitude
Rises 10:03:05 0° 326° (NW) 3,663 8.9 9.6°
Reaches altitude 10° 10:05:42 10° 324° (NW) 2,709 8.3 9.9°
Maximum altitude 10:12:00 64° 245° (WSW) 1,034 6.8 10.8°
Drops below altitude 10° 10:17:58 10° 164° (SSE) 2,558 10.0 11.5°
Sets 10:20:23 0° 162° (SSE) 3,447 10.7 11.8°
